06:45
Airports
History
Links
Donate
Help keep this website running!
PayPal
Bitcoin
Information on this page is community maintained and may be outdated or inaccurate and is intended for reference only or PC simulator navigating.
Always use approved charts for navigating.
YMHB
HobartEdited 30-Jun-2011
Hobart (YMHB)
Cambridge, Tasmania, Australia (7170)
(C)
Lat/Lng:42° 50' 10.18" S / 147° 30' 42.39" E
-42.836161 / 147.511775
Elevation:12'ft 4mMSL
ID / ICAO:YMHB
Runways:1
Longest:(12-30) 2,253.1m 7,392ft Asphalt
Controlled:Yes
Beacon:White-Green
Distance To
Airport ID:
Airport Radio Frequencies
YMHB ATIS: 128.44
HOBART MULT: 118.1
Tower: 118.1
METARUpdated 07-28-17 06:30 GMT
Altimeter: 29.91
Visibility: 6.2 statute miles
Wind: 9 knots (210°)
Temp: 11°c 52°f
Humidity: %

METAR: YMHB 280630Z 21009KT 9999 FEW050 11/00 Q1013

(Powered by phpweather)
Runway 12 / 30
Dimensions:2253.1 x 45.1m 7392' x 148'ft
Surface:Asphalt
Edge Lights:Medium intensity
Runway 12 [A]Runway 30 [B]
Heading:135°TH 315°TH
Lat:
Lng:
42° 49' 44.31"S
147° 30' 7.41"E
42° 50' 36.05"S
147° 31' 17.37"E
ALS:Calvert
TDZ:Yes, lighted
User Notes and Comments
Google Map
Nearby Airports
(C) Cambridge 1.9 NM
YCBG WNW 291°
4 SANDFLY 18.3 NM
YSFY SW 236°
4 LAGOON BAY 22.7 NM
YLAG E 98°
4 KEMPTON 26.3 NM
YKPN NW 322°
4 Bruny Island 28.3 NM
YBYI SSW 193°
4 Triabunna 29.7 NM
YTUA NE 41°
4 Darlington 33.5 NM
YDAR ENE 57°
VFR Chart
Flight Planning at SkyVector.com